www.pogodaiklimat.ru

Погода и климат >> Архив погоды >> Бангладеш >> Комилла


ПОГОДА в Комилле

  • Прогноз погоды в Комилле
  • Монитор погоды в Комилле

АРХИВ ПОГОДЫ в Комилле

Время (UTC), дата Ветер
(напр.,м/с)
 
Видим.   Явления Облачность Т
(С)
Тd
(С)
f
(%)
Тe
(С)
Тes
(С)
Комфортность P
(гПа)
Po
(гПа)
Тmin
(С)
Tmax
(С)
R
(мм)
R24
(мм)
S
(см)
06 12.06 штиль 0 7000 м 5/5 540 м
[Cu Sc]
+33.8 +27.0 68 +52 +67 опасность
перегрева
1001.4 1000.6
18 12.06 ЮЗ 2 6000 м зарница 5/5 480 м
[Cb calv]
+30.0 +28.0 89 +50 +50 опасность
перегрева
1001.1 1000.2
12 13.06 штиль 0 6000 м 9/5 480 м
[Sc As op]
+33.8 +27.0 68 +52 +52 опасность
перегрева
997.0 996.2 +35.5
18 13.06 штиль 0 5000 м 9/5 480 м
[Sc As op]
+28.8 +27.0 90 +45 +45 опасность
перегрева
999.9 999.0
00 14.06 штиль 0 5000 м {гроза, дождь} 8/4 480 м
[Sc As op]
+26.2 +24.0 88 +36 +37 очень
душно
999.1 998.2 16
06 14.06 ЮЗ 1 6000 м {дождь} 8/4 480 м
[Sc As op]
+28.6 +27.0 91 +45 +52 опасность
перегрева
999.6 998.8 2
12 14.06 штиль 0 6000 м 8/3 480 м
[Sc Ci sp]
+29.4 +26.0 82 +44 +45 опасность
перегрева
1007.8 1007.0 +33.2
15 14.06 штиль 0 5000 м 5/0
[Ci fib]
+28.0 +26.0 89 +42 +42 опасность
перегрева
999.3 998.5
18 14.06 штиль 0 5000 м 5/0
[Ci fib]
+28.0 +27.0 94 +44 +44 опасность
перегрева
1000.9 1000.1
00 15.06 Ю 1 5000 м 10/3 480 м
[Sc As trans]
+28.4 +26.0 87 +43 +43 опасность
перегрева
999.7 998.9
03 15.06 штиль 0 6000 м 10/4 480 м
[Sc As op]
+29.6 +28.0 91 +49 +51 опасность
перегрева
1000.7 999.9 +27.0
06 15.06 штиль 0 5000 м слаб. дождь {гроза} 10/4 450 м
[Sc As op]
+23.9 +23.0 95 +32 +35 очень
душно
1001.4 1000.5 42
09 15.06 ЮЗ 2 5000 м гроза, ливневой дождь 10/5 450 м
[Cb cap As op]
+24.4 +23.0 92 +32 +34 очень
душно
999.8 998.9
12 15.06 штиль 0 5000 м {гроза, дождь} 10/4 480 м
[Sc As op]
+24.3 +23.0 92 +32 +32 очень
душно
999.0 998.2 +30.0 6
18 15.06 штиль 0 5000 м 5/0
[Ac trans]
+24.2 +23.0 93 +32 +32 очень
душно
1001.3 1000.5
00 16.06 штиль 0 5000 м 4/3 540 м
[Sc Ac trans]
+25.0 +24.0 94 +34 +35 очень
душно
1001.0 1000.2
03 16.06 Ю 2 6000 м 4/4 540 м
[Sc diur, vesp]
+29.0 +25.0 79 +42 +49 опасность
перегрева
1000.9 1000.1 +23.6
06 16.06 Ю 4 6000 м 6/5 540 м
[Sc diur, vesp As op]
+31.3 +27.0 78 +49 +56 опасность
перегрева
1000.7 999.9
09 16.06 Ю 3 6000 м 8/8 540 м
[Cu Sc]
+32.6 +28.0 77 +53 +55 опасность
перегрева
998.8 998.0
12 16.06 ЮВ 2 6000 м 4/4 540 м
[Sc]
+31.2 +27.0 78 +49 +49 опасность
перегрева
998.4 997.6 +32.8
15 16.06 ЮВ 2 5000 м 1/1 540 м
[Sc]
+29.6 +28.0 91 +49 +49 опасность
перегрева
1000.3 999.5
18 16.06 Ю 1 5000 м 3/3 540 м
[Sc]
+28.9 +28.0 95 +48 +48 опасность
перегрева
1000.1 999.3
00 17.06 штиль 0 6000 м ясно +28.1 +27.0 94 +44 +45 опасность
перегрева
1000.2 999.4
03 17.06 Ю 1 6000 м 8/8 480 м
[Cu Sc]
+30.6 +28.0 86 +51 +54 опасность
перегрева
1001.4 1000.6 +28.0
06 17.06 Ю 3 6000 м 8/8 480 м
[Cu Sc]
+32.9 +27.0 71 +51 +54 опасность
перегрева
1000.8 1000.0
09 17.06 Ю 2 6000 м 8/8 480 м
[Cu Sc]
+33.0 +27.0 71 +51 +54 опасность
перегрева
999.2 998.3
12 17.06 Ю 1 6000 м ясно +31.4 +26.0 73 +47 +47 опасность
перегрева
998.4 997.5 +33.4
15 17.06 штиль 0 6000 м 4/1 540 м
[Sc Ac trans]
+30.0 +28.0 89 +50 +50 опасность
перегрева
1000.3 999.4
18 17.06 ЮЗ 1 5000 м гроза, ливневой дождь 10/5 500 м
[Cb cap As op]
+26.1 +24.0 88 +36 +36 очень
душно
1002.0 1001.1 11
00 18.06 ЮЗ 1 5000 м слаб. дождь {гроза} 10/5 450 м
[Sc As op]
+25.8 +25.0 95 +37 +37 очень
душно
1001.8 1000.9 2
03 18.06 ЮВ 1 5000 м {дождь} 8/5 480 м
[Sc As op]
+27.0 +25.0 89 +39 +43 очень
душно
1000.8 999.9 +25.4
06 18.06 Ю 1 6000 м {дождь} 8/4 540 м
[Sc Ac As]
+31.7 +25.0 68 +45 +54 опасность
перегрева
1000.7 999.9 2
09 18.06 СЗ 1 6000 м 6/4 540 м
[Sc diur, vesp Ac trans]
+30.8 +25.0 71 +44 +51 опасность
перегрева
998.6 997.8
12 18.06 штиль 0 6000 м 5/1 540 м
[Sc Ci sp]
+31.3 +25.0 69 +45 +45 опасность
перегрева
997.9 997.0 +33.0
15 18.06 штиль 0 6000 м зарница 8/5 480 м
[Cb calv As op]
+29.3 +26.0 82 +44 +44 опасность
перегрева
1000.4 999.6
18 18.06 штиль 0 6000 м зарница 9/6 480 м
[Cb calv As op]
+28.9 +27.0 90 +46 +46 опасность
перегрева
1001.7 1000.9
00 19.06 штиль 0 6000 м 5/0 300 м
[Ac und]
+26.3 +24.0 87 +36 +37 очень
душно
1000.5 999.7

 

Местоположение метеостанции Комилла (Бангладеш): широта 23.43 долгота 91.18 высота над уровнем моря 9 м.

В архиве по умолчанию представлена погода в Комилле за последнюю неделю. Архивные данные за месяц целиком и за предыдущие месяцы, начиная с января 2011 года, Вы можете получить, выбрав интересующий диапазон дат из раскрывающегося списка и нажав кнопку "Ввод!".


*Определитесь, кто Вы:
робот инопланетянин человек

Внимание! Время в таблицах - всемирное. Для получения местного времени необходимо прибавить поправку, которая равна 6.5 ч.

Смотрите также архив погоды в соседних городах и на ближайших метеорологических станциях:

Погода в Агартале (Трипура, Индия) (51 км)
Погода в Фени (Бангладеш) (51 км)
Погода в Чандпуре (Бангладеш) (52 км)
Погода в Маиидиcурте (Бангладеш) (63 км)
Погода в Дакке (Бангладеш) (90 км)
Погода в Бхоле (Бангладеш) (100 км)
Погода в Никли (Бангладеш) (103 км)
Погода в Мадарипуре (Бангладеш) (106 км)
Погода в Ситакунду (Бангладеш) (109 км)
Погода в Сандвипе (Бангладеш) (109 км)

Пояснения к столбцам:

Ветер - указаны скорость ветра в м/с - средняя за 10 мин, порывы в срок и между сроками (в фигурных скобках) и направление, откуда дует ветер: С - северный, СВ - северо-восточный, В - восточный, ЮВ - юго-восточный, Ю - южный, ЮЗ - юго-западный, З - западный, СЗ - северо-западный.
Видимость - горизонтальная дальность видимости в метрах или километрах. При видимости от 1 до 10 км при отсутствии осадков обычно наблюдается дымка, при ухудшении видимости до 1 км и менее - туман. В сухую погоду видимость может ухудшаться дымом, пылью или мглою.
Явления - указаны атмосферные явления, наблюдавшиеся в срок или в последний час перед сроком; фигурными скобками обозначены явления, наблюдавшиеся между сроками (за 1-3 часа до срока); квадратными скобками обозначены град или гололедные отложения с указанием их диаметра в мм.
Облачность - указаны через наклонную черту общая и нижняя облачность в баллах и высота нижней границы облаков в метрах; квадратными скобками обозначены формы облаков: Ci - перистые, Cs - перисто-слоистые, Cc - перисто-кучевые, Ac - высококучевые, As - высокослоистые, Sc - слоисто-кучевые, Ns - слоисто-дождевые, Cu - кучевые, Cb - кучево-дождевые. Подробнее классификацию облаков см. в Атласе облаков (PDF).
T - Температура воздуха - температура, измеренная на высоте 2 м над землей.
Td - Температура точки росы - температура, при понижении до которой содержащийся в воздухе водяной пар достигнет насыщения.
f - Относительная влажность воздуха - влажноcть воздуха, измеренная на высоте 2 м над землей.
Te - Эффективная температура - температура, которую ощущает одетый по сезону человек в тени. Характеристика душности погоды. При расчете учитывается влияние влажности воздуха и скорости ветра на теплоощущения человека.
Tes - Эффективная температура на солнце - температура, которую ощущает человек, с поправкой на солнечный нагрев. Характеристика знойности погоды. Зависит от высоты солнца над горизонтом, облачности и скорости ветра. Ночью, в пасмурную погоду, а также при ветре 12 м/с и более поправка равна нулю.
P - Атмосферное давление - приведенное к уровню моря атмосферное давление.
Po - Атмосферное давление - измеренное на уровне метеостанции атмосферное давление.
Tmin - Минимальная температура - минимум температуры воздуха на высоте 2 м над землей.
Tmax - Максимальная температура - максимум температуры воздуха на высоте 2 м над землей.
R - Количество осадков - Количество выпавших осадков за период времени, мм. При наведении курсора мыши на число - период времени, за который выпало указанное количество осадков.
R24 - Количество осадков - Количество выпавших осадков за 24 часа, мм.
S - Снежный покров - Высота снежного покрова, см. При наведении курсора мыши на число - состояние снежного покрова и степень покрытия местности в баллах.